Wind_Speed
33 36 38 39 38 36 34 34 33 33 31 30 31 32 35 36 34 29 27 35 35 36 40 42 45 46 47 48 51 54 53 48 45 43 47 48 49 48 53 45 47 46 40 42 27
40 40 40 40 37 38 37 36 36 35 33 33 32 32 33 36 36 34 37 36 36 35 40 42 44 48 47 47 51 54 52 48 45 44 44 51 54 57 56 52 53 52 37 35 33
38 40 41 41 40 40 40 40 39 39 39 37 36 37 33 37 40 40 43 40 38 38 41 43 46 47 49 50 51 52 51 50 49 47 47 49 56 58 51 55 54 58 44 41 45
44 45 44 44 44 44 44 44 44 44 44 44 43 40 38 38 43 46 45 45 45 42 42 44 47 47 47 49 52 54 50 50 49 47 42 51 57 62 57 52 59 62 54 47 43
51 50 48 49 49 50 51 51 51 51 51 50 50 50 47 43 42 46 48 48 50 47 45 45 46 48 48 47 50 52 50 51 50 48 45 49 58 60 63 61 58 66 63 54 54
53 53 54 57 57 57 56 56 57 59 58 57 56 56 56 56 43 49 49 53 54 52 49 48 47 48 49 47 47 49 50 52 53 50 50 53 54 60 60 66 62 64 67 73 61
58 61 63 63 61 60 60 61 61 61 62 63 62 62 59 56 49 53 54 53 53 52 49 47 48 50 50 50 49 51 54 57 55 53 53 58 59 57 61 63 68 66 67 70 66
62 65 65 67 68 70 71 72 69 69 67 68 69 69 64 59 60 58 58 57 53 52 48 47 47 49 51 52 51 52 55 56 53 54 56 61 61 60 59 62 67 70 70 65 66
67 70 72 74 76 76 75 75 72 72 72 73 73 74 70 66 65 56 63 62 59 53 51 51 51 49 50 54 55 56 54 55 52 52 56 60 62 59 62 63 62 70 74 70 67
74 77 80 78 78 77 76 71 69 73 75 77 79 78 68 68 70 62 65 64 62 51 55 56 52 51 52 57 57 55 54 52 50 49 54 57 59 59 61 65 65 65 74 75 71
82 84 84 81 72 64 57 50 52 55 56 62 71 76 73 72 71 65 64 60 58 58 58 56 55 55 54 52 50 47 47 42 42 41 43 44 51 57 60 66 68 65 70 78 61
85 87 81 69 57 54 50 47 46 46 44 42 41 50 57 56 67 56 56 57 60 58 54 57 55 50 45 46 45 43 38 35 38 40 42 44 47 51 59 66 70 69 70 75 77
87 80 67 62 56 48 45 44 40 40 42 19 25 22 28 48 54 50 53 49 50 57 54 52 48 43 43 44 41 37 35 36 36 36 39 41 48 52 54 62 72 73 72 74 74
79 68 66 53 38 35 35 35 32 31 26 7 12 11 22 36 53 47 48 46 50 49 48 45 42 37 39 38 36 33 35 31 26 28 30 34 44 49 54 60 63 74 75 74 70
67 61 36 38 31 27 28 26 23 19 12 6 8 8 18 29 34 42 43 45 47 46 48 46 40 39 38 35 38 31 27 24 22 24 26 31 38 29 29 40 57 64 72 75 64
59 30 32 36 29 25 24 19 14 16 18 14 15 10 3 32 44 45 41 41 40 40 40 37 35 34 34 34 30 27 26 25 25 26 32 22 29 17 24 18 21 42 56 60 51
33 25 28 31 36 33 21 15 17 13 15 12 12 9 11 36 42 43 43 45 45 45 41 39 34 35 36 35 35 32 33 30 34 36 15 13 18 8 15 17 18 23 34 41 49
22 26 36 38 35 34 32 23 20 12 9 12 14 20 11 40 42 42 41 41 40 39 41 40 44 42 41 41 36 36 30 36 43 27 11 14 11 12 19 25 29 27 27 33 43
20 26 30 36 28 24 24 22 17 5 9 14 30 27 20 41 41 42 35 38 36 42 42 41 40 37 41 32 35 36 39 35 31 25 19 15 19 15 19 21 22 31 23 27 31
16 28 32 29 29 21 24 21 13 12 6 26 28 23 20 40 46 44 38 41 38 36 40 38 33 36 33 35 36 35 31 39 33 28 17 22 15 18 20 20 18 16 12 16 20
19 27 31 28 27 26 23 16 2 14 17 28 28 25 27 39 44 41 35 36 37 37 37 34 36 32 35 42 40 38 39 39 30 34 29 23 21 22 19 22 18 15 11 10 18
18 25 26 26 21 22 19 15 8 5 29 31 27 23 26 33 39 40 37 34 35 36 34 34 38 36 36 35 33 32 36 37 35 36 33 28 25 29 23 13 15 18 13 10 13
17 25 26 24 18 21 18 10 5 19 21 24 22 16 7 21 33 36 36 28 33 38 36 42 42 39 34 33 31 31 33 35 31 31 35 31 27 25 28 20 24 21 18 16 15
15 19 25 22 19 19 10 2 17 21 24 16 16 17 11 20 26 40 35 30 33 29 39 42 44 43 39 32 30 28 31 30 23 29 35 28 23 19 30 36 34 31 23 18 13
16 23 24 18 20 19 11 17 18 22 17 16 12 12 18 26 32 41 35 30 30 42 43 45 45 45 42 37 30 28 26 28 27 29 34 27 25 21 43 44 39 30 23 22 15
15 17 21 18 20 14 14 10 13 19 19 17 11 19 21 34 34 33 41 32 37 48 46 44 44 43 39 38 30 29 31 31 34 33 22 19 16 17 34 33 43 27 23 31 25
14 17 19 15 10 11 15 11 9 16 22 13 16 15 24 26 32 36 34 35 41 47 46 38 40 40 37 41 36 37 35 34 33 29 22 20 20 21 6 10 28 29 17 28 12
Wind_Direction
305 301 298 295 295 292 285 278 277 268 261 258 256 262 259 252 248 241 241 235 237 233 232 229 231 228 229 230 228 229 231 230 228 222 213 211 214 216 213 219 226 231 233 235 237
307 305 302 297 294 289 285 279 274 272 265 257 253 253 253 247 245 244 241 238 235 237 229 230 228 229 228 228 232 230 230 232 231 227 219 217 210 216 216 217 224 229 223 226 228
305 305 302 297 291 286 282 281 276 272 268 263 258 251 246 250 243 240 241 242 235 234 230 230 230 231 229 226 230 233 229 230 229 226 221 220 222 219 219 216 222 228 230 232 240
307 305 300 297 293 288 282 277 274 271 265 262 261 256 245 245 246 242 240 240 241 235 233 230 230 231 231 230 231 231 230 229 229 229 221 217 220 218 220 221 221 228 228 231 236
305 302 299 297 293 288 284 280 275 271 267 262 260 258 255 251 246 246 241 240 240 238 233 229 230 231 230 230 230 230 231 231 229 229 225 219 220 220 215 221 225 227 227 231 236
309 304 300 297 295 290 286 282 277 272 268 264 260 256 255 250 246 243 240 239 239 239 236 231 229 229 227 229 229 230 230 232 230 228 229 225 222 220 221 219 222 231 237 235 221
306 302 298 297 295 292 289 285 281 276 272 265 260 256 252 248 244 240 236 235 237 240 239 239 232 229 226 225 226 228 228 228 229 226 227 231 222 220 223 219 221 222 233 241 238
307 303 301 301 298 295 291 288 283 276 268 264 259 254 253 247 242 239 238 233 233 234 232 230 233 232 227 224 225 229 231 232 230 230 230 231 225 225 223 224 219 222 227 235 241
311 309 307 303 301 296 291 286 278 270 264 258 254 251 247 245 239 237 232 232 230 229 228 229 227 228 229 226 224 228 232 235 231 230 231 234 231 225 228 226 220 223 223 234 239
314 313 311 308 301 295 289 284 274 266 260 255 251 249 246 247 240 235 233 229 232 226 226 227 228 227 227 228 228 228 229 233 236 236 233 233 236 229 230 228 226 220 224 225 237
319 317 313 310 303 300 298 290 280 275 269 264 258 248 240 240 237 238 230 229 228 228 226 227 229 232 231 231 231 230 233 236 242 241 243 240 238 234 228 232 231 222 223 225 228
322 318 316 312 311 305 296 288 286 283 274 272 270 259 242 244 235 231 230 227 225 225 225 226 227 228 224 227 229 230 234 238 237 238 241 242 239 234 227 225 231 228 222 224 222
323 322 319 316 309 302 295 290 289 287 288 292 275 251 234 229 226 223 223 223 223 224 224 229 231 224 222 223 224 225 229 232 240 246 247 248 239 235 230 226 227 231 227 224 226
327 325 323 324 324 310 295 294 288 291 298 316 249 208 214 217 218 213 214 215 216 218 220 221 224 221 223 221 219 218 224 224 237 244 250 246 241 234 235 229 225 229 231 230 226
330 333 356 358 347 325 317 306 299 292 291 292 175 222 211 219 189 210 205 206 215 216 215 216 214 212 212 211 212 211 216 225 234 227 232 240 242 223 239 241 231 227 231 234 235
338 3 12 9 1 0 352 339 310 303 313 283 248 81 40 186 177 187 191 191 206 210 211 207 205 209 211 205 209 206 210 222 223 210 232 219 248 228 223 243 251 232 228 232 226
353 7 359 3 5 15 22 24 20 11 297 243 217 10 162 172 169 174 183 188 194 193 197 197 196 202 200 198 203 199 207 212 213 211 166 238 240 167 202 186 201 217 225 227 226
12 6 11 8 7 9 12 21 1 349 331 199 21 74 151 159 162 163 177 182 190 191 194 193 193 197 195 196 203 201 211 208 201 185 181 232 166 153 180 174 169 170 186 206 216
8 3 356 354 3 8 10 12 11 308 184 51 46 97 156 158 152 161 173 177 183 186 190 193 195 196 195 191 192 197 209 196 199 220 239 203 191 179 187 176 194 191 194 198 205
346 353 356 358 359 12 15 21 12 179 73 61 75 79 157 166 154 164 177 176 180 188 189 194 188 192 182 187 190 199 199 195 196 208 206 212 209 209 196 184 196 177 176 203 220
352 345 348 359 9 24 28 18 40 182 41 32 51 60 164 171 160 163 165 172 175 179 187 183 183 176 183 190 188 186 195 205 212 216 218 216 214 225 203 194 224 211 197 202 211
340 352 360 5 11 28 39 30 163 85 29 48 77 134 155 177 172 160 160 165 173 177 188 182 171 174 182 177 186 186 194 205 212 217 220 217 199 225 221 203 195 218 225 209 205
352 352 354 7 34 47 42 38 7 31 26 35 57 56 152 175 175 163 151 155 173 178 191 174 172 169 170 184 174 187 190 197 210 225 229 222 203 221 221 214 193 213 217 219 225
357 358 0 15 43 53 39 77 21 27 28 53 68 79 113 160 160 147 147 161 169 180 177 175 175 172 175 183 181 183 191 201 209 230 225 255 251 215 200 201 202 211 214 212 191
360 3 6 23 64 57 43 16 11 21 32 52 84 109 142 158 162 153 162 163 172 168 174 181 183 178 180 180 189 186 192 191 214 227 240 267 275 281 190 196 196 209 222 224 231
9 4 14 26 78 65 51 35 26 41 41 44 91 106 157 157 162 152 162 175 180 168 180 191 187 185 188 189 180 186 189 205 221 232 232 255 238 171 178 191 194 193 217 220 224
358 3 16 34 69 72 59 35 35 19 34 34 99 107 139 150 154 160 170 178 178 173 185 196 183 190 195 195 187 190 200 210 222 232 239 246 251 179 233 239 212 214 232 222 237
Height
5809 5804 5800 5796 5792 5789 5786 5783 5781 5778 5776 5774 5773 5772 5772 5773 5774 5775 5778 5775 5775 5779 5782 5786 5789 5792 5796 5803 5806 5808 5815 5825 5833 5845 5853 5853 5856 5859 5863 5866 5868 5866 5874 5876 5880
5799 5795 5790 5785 5781 5777 5775 5772 5769 5768 5766 5765 5763 5762 5762 5762 5765 5768 5765 5766 5768 5770 5774 5776 5780 5782 5788 5794 5796 5800 5809 5820 5828 5836 5843 5846 5846 5849 5856 5862 5865 5863 5871 5871 5873
5789 5783 5778 5774 5770 5766 5763 5760 5758 5756 5754 5753 5753 5753 5751 5752 5754 5756 5755 5757 5759 5760 5763 5767 5769 5774 5779 5784 5788 5793 5801 5811 5817 5822 5830 5837 5841 5845 5850 5858 5860 5858 5863 5866 5864
5779 5773 5767 5762 5758 5754 5751 5746 5744 5742 5740 5738 5738 5739 5740 5742 5743 5742 5744 5747 5747 5751 5754 5757 5759 5764 5771 5776 5779 5782 5794 5799 5806 5809 5818 5826 5828 5836 5844 5850 5853 5850 5857 5858 5857
5766 5759 5754 5748 5743 5739 5735 5732 5728 5725 5724 5723 5722 5722 5726 5729 5732 5730 5733 5735 5736 5738 5742 5745 5749 5754 5759 5765 5770 5775 5784 5787 5793 5800 5809 5813 5818 5826 5836 5843 5847 5843 5847 5850 5847
5753 5746 5739 5733 5728 5722 5717 5713 5709 5707 5704 5704 5704 5704 5708 5713 5716 5714 5717 5720 5722 5726 5730 5734 5739 5743 5748 5754 5761 5769 5773 5776 5783 5793 5798 5802 5808 5817 5827 5835 5840 5841 5838 5835 5847
5739 5730 5721 5714 5708 5702 5696 5692 5688 5684 5682 5681 5681 5683 5687 5697 5699 5697 5700 5705 5710 5714 5720 5725 5728 5731 5737 5744 5751 5756 5759 5762 5772 5781 5787 5789 5797 5809 5817 5827 5832 5834 5830 5827 5837
5722 5713 5704 5695 5687 5679 5671 5665 5660 5656 5656 5655 5657 5658 5664 5678 5677 5681 5684 5689 5696 5700 5706 5710 5716 5722 5727 5733 5741 5745 5749 5755 5766 5770 5776 5775 5792 5800 5805 5812 5824 5826 5825 5824 5824
5706 5694 5683 5671 5661 5650 5642 5635 5629 5623 5625 5625 5627 5629 5642 5652 5656 5660 5666 5671 5677 5684 5689 5696 5703 5710 5718 5722 5729 5735 5742 5748 5755 5761 5762 5765 5781 5791 5794 5800 5812 5818 5820 5823 5822
5687 5672 5659 5644 5630 5618 5608 5603 5593 5587 5589 5591 5595 5602 5623 5625 5629 5640 5647 5655 5662 5669 5674 5682 5690 5698 5705 5709 5716 5725 5732 5738 5746 5752 5752 5757 5766 5778 5782 5788 5795 5807 5813 5818 5821
5664 5647 5631 5614 5599 5586 5580 5573 5565 5563 5562 5562 5563 5572 5589 5592 5607 5615 5629 5637 5644 5654 5663 5670 5679 5687 5695 5704 5714 5722 5728 5734 5739 5743 5743 5751 5755 5763 5771 5773 5781 5796 5802 5808 5815
5639 5621 5603 5589 5578 5566 5558 5550 5546 5543 5544 5545 5546 5547 5563 5564 5582 5597 5612 5619 5630 5645 5652 5659 5671 5680 5689 5695 5705 5715 5723 5728 5730 5731 5734 5739 5743 5745 5753 5762 5768 5777 5787 5795 5804
5616 5597 5581 5570 5560 5549 5541 5536 5533 5529 5525 5537 5530 5533 5540 5541 5566 5578 5597 5609 5622 5632 5645 5654 5666 5674 5681 5688 5698 5709 5715 5718 5721 5721 5723 5725 5728 5731 5740 5748 5756 5762 5773 5782 5794
5597 5579 5565 5552 5543 5535 5528 5523 5522 5522 5520 5521 5520 5524 5524 5527 5549 5565 5584 5598 5608 5624 5637 5647 5656 5667 5675 5684 5692 5702 5709 5711 5712 5713 5715 5716 5716 5723 5727 5731 5739 5750 5760 5772 5783
5584 5569 5555 5544 5539 5528 5521 5517 5515 5517 5516 5517 5517 5518 5521 5529 5550 5561 5575 5587 5603 5617 5627 5640 5648 5658 5667 5678 5685 5698 5702 5706 5707 5707 5707 5709 5710 5721 5717 5720 5735 5743 5749 5758 5772
5577 5566 5556 5546 5535 5525 5518 5513 5513 5515 5513 5514 5512 5510 5513 5519 5530 5548 5567 5583 5598 5611 5621 5633 5645 5654 5666 5674 5682 5692 5697 5699 5702 5703 5699 5707 5708 5712 5713 5725 5728 5733 5742 5752 5764
5573 5565 5557 5548 5538 5527 5519 5516 5516 5514 5512 5511 5509 5512 5510 5517 5528 5543 5561 5573 5585 5599 5613 5627 5640 5648 5657 5667 5673 5682 5687 5691 5695 5695 5703 5705 5705 5708 5714 5720 5725 5730 5737 5742 5751
5574 5566 5558 5548 5540 5532 5524 5521 5517 5516 5514 5513 5515 5513 5515 5519 5530 5543 5559 5571 5585 5599 5613 5621 5629 5639 5650 5658 5667 5674 5683 5685 5685 5696 5703 5704 5708 5712 5714 5716 5718 5723 5727 5733 5741
5574 5567 5560 5551 5542 5533 5529 5522 5521 5519 5518 5519 5516 5517 5521 5527 5535 5547 5561 5574 5586 5597 5611 5619 5629 5640 5645 5659 5665 5672 5674 5685 5690 5695 5700 5700 5702 5708 5711 5715 5719 5719 5722 5728 5733
5576 5569 5561 5553 5544 5535 5530 5526 5524 5524 5524 5523 5521 5524 5528 5533 5538 5550 5562 5572 5583 5597 5608 5620 5630 5637 5648 5654 5662 5668 5678 5680 5681 5688 5695 5698 5701 5702 5705 5712 5717 5717 5720 5724 5729
5577 5571 5563 5554 5545 5538 5533 5531 5529 5528 5527 5530 5530 5530 5531 5538 5543 5551 5564 5576 5584 5597 5608 5617 5628 5639 5644 5646 5656 5663 5670 5676 5683 5687 5690 5693 5698 5700 5704 5707 5714 5715 5720 5724 5728
5577 5573 5565 5559 5550 5543 5539 5538 5536 5535 5537 5537 5536 5534 5537 5543 5547 5555 5566 5580 5589 5598 5606 5617 5626 5633 5640 5652 5658 5663 5670 5674 5678 5684 5687 5689 5694 5695 5700 5704 5709 5713 5719 5724 5727
5579 5573 5568 5561 5555 5548 5547 5546 5543 5542 5542 5542 5539 5542 5546 5550 5556 5564 5573 5581 5590 5597 5606 5615 5623 5632 5642 5649 5655 5661 5669 5675 5680 5682 5683 5687 5693 5693 5699 5701 5707 5712 5717 5721 5724
5581 5578 5570 5562 5557 5555 5555 5552 5550 5548 5547 5545 5547 5546 5548 5552 5560 5567 5574 5582 5590 5599 5608 5617 5623 5632 5641 5649 5655 5661 5667 5675 5677 5678 5683 5686 5687 5689 5695 5699 5703 5708 5713 5717 5724
5582 5577 5571 5566 5562 5560 5559 5558 5556 5554 5551 5551 5550 5549 5549 5556 5565 5571 5580 5585 5590 5597 5608 5615 5622 5632 5638 5646 5655 5660 5667 5672 5674 5675 5676 5680 5678 5675 5686 5693 5699 5706 5709 5714 5720
5585 5581 5575 5571 5566 5566 5565 5563 5561 5559 5556 5554 5553 5552 5553 5561 5569 5572 5580 5585 5590 5597 5607 5613 5622 5631 5639 5646 5653 5659 5664 5666 5668 5672 5675 5679 5681 5680 5684 5692 5697 5701 5706 5711 5717
5587 5582 5579 5575 5571 5570 5567 5565 5565 5563 5561 5558 5555 5557 5561 5566 5571 5578 5582 5585 5592 5598 5605 5612 5622 5631 5638 5645 5652 5658 5661 5663 5665 5668 5674 5679 5682 5684 5689 5694 5697 5702 5707 5709 5715